Погода в Сосновоборске

Россия / Красноярский край     56°07′12″N   93°20′07″E
темп.,
°C
ветер,
м/с
пор.,
м/с
влажн.,
%
обл.,
%
осадки,
мм/ч
давл.,
гПа
погр.,
м
27 октября, ср
ср2701:00+11юз71646100 0.0 1004658
04:00+11юз81741100 0.0 10051047
07:00+5з81674100 0.0 10111168
10:00+5з81560100 0.1 10151730
13:00+3з7124891 0.1 10201713
16:00+2з6124577 0.0 10231720
19:00−1з5105168 0.0 1025901
22:00−1з4851100 0.0 1026982
28 октября, чт
чт2801:00−2зюз3753100 0.0 1027655
04:00−2юз3758100 0.0 1028402
07:00−2юз495698 0.0 1029513
10:00−1зюз49495 0.0 10301157
13:00+1з583971 0.0 10291596
16:00+1зюз354321 0.0 1029587
19:00−2ююз235681 0.0 103043
22:00−2ю2254100 0.0 102944
29 октября, пт
пт2901:00−2ююв235644 0.0 102846
04:00−3ююв235738 0.0 102747
07:00−3ююв2356100 0.0 102661
10:000ю2454100 0.0 1025164
13:00+4ююз31049100 0.0 1024687
16:00+4юз41156100 0.0 1023547
19:00+4ююз41162100 0.0 1023387
22:00+4юз51364100 0.0 1022484
30 октября, сб
сб3001:00+4юз61563100 0.0 1021644
04:00+5юз61563100 0.0 1021723
07:00+5юз71660100 0.0 1020894
10:00+7юз7175797 0.0 10191503
13:00+8юз71648100 0.0 10182029
16:00+6зюз71445100 0.0 10191656
19:00+4зюз61259100 0.0 10201220
22:000з61273100 0.2 10231066
31 октября, вс
вс3101:00−3зюз512575 0.2 10261244
04:00−4зюз5125132 0.0 10261290
07:00−3юз51255100 0.0 10261166
10:00−1юз41146100 0.0 10231126
13:00+2юз51237100 0.0 10201631
16:00+1юз2552100 0.0 1017187
19:00+1ююв2769100 0.0 1014247
22:00+1ю2283100 0.0 101042